This is the latest recevied weather packets stored in our database for station/object VR2MW-X. If no packets are shown the sender has not sent any weather packets the latest 10 day(s).
| Time | Temp. | Humidity | Pressure | Rain* | Wind** | Luminosity | Snow |
|---|---|---|---|---|---|---|---|
| 1777940881 | 20° C | 94% | 1015 hPa | - | - | - | - |
| 1777940270 | 20° C | 94% | 1015 hPa | - | - | - | - |
| 1777939660 | 20° C | 92% | 1014.8 hPa | - | - | - | - |
| 1777939050 | 20° C | 92% | 1014.7 hPa | - | - | - | - |
| 1777938439 | 20° C | 93% | 1014.6 hPa | - | - | - | - |
| 1777937828 | 20° C | 92% | 1014.6 hPa | - | - | - | - |
| 1777937216 | 20° C | 92% | 1014.1 hPa | - | - | - | - |
| 1777936606 | 20° C | 92% | 1014.1 hPa | - | - | - | - |
| 1777935994 | 20° C | 94% | 1014.2 hPa | - | - | - | - |
| 1777935384 | 20° C | 94% | 1014.2 hPa | - | - | - | - |
| 1777934769 | 20° C | 93% | 1014.1 hPa | - | - | - | - |
| 1777934159 | 20° C | 91% | 1014.1 hPa | - | - | - | - |
| 1777933546 | 20° C | 89% | 1014.2 hPa | - | - | - | - |
| 1777932935 | 21.11° C | 83% | 1013.8 hPa | - | - | - | - |
| 1777932325 | 22.22° C | 78% | 1014.1 hPa | - | - | - | - |
| 1777931714 | 22.22° C | 78% | 1014.1 hPa | - | - | - | - |
| 1777931103 | 22.22° C | 78% | 1013.7 hPa | - | - | - | - |
| 1777930491 | 22.22° C | 79% | 1013.7 hPa | - | - | - | - |
| 1777929880 | 22.22° C | 79% | 1013.7 hPa | - | - | - | - |
| 1777929270 | 22.22° C | 80% | 1013.5 hPa | - | - | - | - |
| 1777928659 | 22.22° C | 80% | 1013.7 hPa | - | - | - | - |
| 1777928049 | 22.22° C | 80% | 1013.7 hPa | - | - | - | - |
| 1777927438 | 22.22° C | 80% | 1013.7 hPa | - | - | - | - |
| 1777926828 | 22.22° C | 80% | 1013.7 hPa | - | - | - | - |
| 1777926218 | 22.22° C | 81% | 1013.5 hPa | - | - | - | - |
* Rain since midnight (hover to see other rain measurements)
** Current wind speed in m/s (hover to see current wind gust speed)